ASTROCAST-0201 (48954 NORAD) Tracking and Keplerian Element Data

This shows tracking and keplerian element data for the satellite.

Feedback or suggestion? Click here.




ElementValue
Catalog48954
NameASTROCAST-0201
Epoch Orbit1389
Epoch Day268.62846427
Epoch Year2021
RAAN36.3311
Inclination97.5243
Eccentricity0.0011416
Argument of Perigee303.0314
Mean Anonmoly56.982
Mean Motion15.13938937
Decay Rate1.106E-05
L11 48954U 21059CD 21268.62846427 .00001106 00000-0 64603-4 0 9996
L22 48954 97.5243 36.3311 0011416 303.0314 56.9820 15.13938937 13896

Live tracking and technical data element details for ASTROCAST-0201 (NORAD 48954). ASTROCAST-0201 can be tracked NOW for your location showing map with azimuth and elevation plus other details from your city location.

Track the satellite on the map from your city or location and see movement details for azimuth, elevation, latitude, longitude, range, height, and movement on the map or in text.







IsCatalogInMostPopularTable: catalog: 48954, numindb: 20
Update: records affected: 1



GetName: 48954 ASTROCAST-0201

Hit Count: updated at: Sun, 26 Sep 2021 16:45:09 GMT